This is the latest recevied weather packets stored in our database for station/object K6CQU-13. If no packets are shown the sender has not sent any weather packets the latest 10 day(s).
| Time | Temp. | Humidity | Pressure | Rain* | Wind** | Luminosity | Snow |
|---|---|---|---|---|---|---|---|
| 1777512917 | 23.89° C | 46% | 1014.2 hPa | 0 mm | - | 39 W/m² | - |
| 1777512618 | 24.44° C | 46% | 1014.2 hPa | 0 mm | - | 40 W/m² | - |
| 1777512317 | 24.44° C | 45% | 1014.2 hPa | 0 mm | - | 40 W/m² | - |
| 1777512017 | 24.44° C | 45% | 1014.2 hPa | 0 mm | - | 42 W/m² | - |
| 1777511717 | 24.44° C | 42% | 1014.2 hPa | 0 mm | - | 42 W/m² | - |
| 1777511417 | 25° C | 43% | 1014.2 hPa | 0 mm | - | 43 W/m² | - |
| 1777511117 | 25° C | 42% | 1014.2 hPa | 0 mm | - | 44 W/m² | - |
| 1777510817 | 25° C | 42% | 1014.2 hPa | 0 mm | - | 47 W/m² | - |
| 1777510517 | 25° C | 46% | 1014.2 hPa | 0 mm | - | 124 W/m² | - |
| 1777509917 | 25° C | 47% | 1014.2 hPa | 0 mm | - | 376 W/m² | - |
| 1777509317 | 25.56° C | 45% | 1014.2 hPa | 0 mm | - | 411 W/m² | - |
| 1777509017 | 25.56° C | 44% | 1014.2 hPa | 0 mm | - | 427 W/m² | - |
| 1777508717 | 25.56° C | 42% | 1014.3 hPa | 0 mm | - | 447 W/m² | - |
| 1777508417 | 25.56° C | 39% | 1014.3 hPa | 0 mm | - | 468 W/m² | - |
| 1777508127 | 25.56° C | 38% | 1014.3 hPa | 0 mm | - | 486 W/m² | - |
| 1777507817 | 25.56° C | 37% | 1014.3 hPa | 0 mm | - | 502 W/m² | - |
| 1777507517 | 25.56° C | 36% | 1014.4 hPa | 0 mm | - | 519 W/m² | - |
| 1777507217 | 25.56° C | 36% | 1014.4 hPa | 0 mm | - | 536 W/m² | - |
| 1777506617 | 26.11° C | 35% | 1014.4 hPa | 0 mm | - | 569 W/m² | - |
| 1777506317 | 26.11° C | 36% | 1014.5 hPa | 0 mm | - | 584 W/m² | - |
| 1777506017 | 26.11° C | 35% | 1014.5 hPa | 0 mm | - | 599 W/m² | - |
| 1777505420 | 26.11° C | 34% | 1014.6 hPa | 0 mm | - | 627 W/m² | - |
| 1777504817 | 26.11° C | 32% | 1014.7 hPa | 0 mm | - | 654 W/m² | - |
| 1777503917 | 26.11° C | 33% | 1015 hPa | 0 mm | - | 691 W/m² | - |
| 1777503317 | 26.67° C | 32% | 1015.1 hPa | 0 mm | - | 713 W/m² | - |
* Rain latest hour (hover to see other rain measurements)
** Current wind speed in m/s (hover to see current wind gust speed)